[TLELIST] Archives

 

[list_settings.list_name] Current TLEs

March 12th 2010 PST

HST 1 20580U 90037B 10066.57864224 +.00000570 +00000-0 +30822-4 0 05329 2 20580 028.4687 183.1574 0003395 198.8317 161.2293 15.00913799889472 ISS (ZARYA) 1 25544U 98067A 10066.17843750 .00014378 00000-0 10419-3 0 7188 2 25544 051.6477 034.3005 0007652 023.0080 154.7514 15.73697725647400 CXO 1 25867U 99040B 10068.58333333 -.00000183 +00000-0 +10000-3 0 04369 2 25867 066.6519 058.3027 8008682 275.2227 359.9148 00.37807070006015 ____________________________________________________________________ These 2-Line ...Continue Reading

[list_settings.list_name] Current TLEs

March 11th 2010 PST

HST 1 20580U 90037B 10066.57864224 +.00000570 +00000-0 +30822-4 0 05329 2 20580 028.4687 183.1574 0003395 198.8317 161.2293 15.00913799889472 ISS (ZARYA) 1 25544U 98067A 10065.70225694 .00014955 00000-0 10824-3 0 7155 2 25544 051.6484 036.7443 0007759 020.7312 337.5215 15.73686448647320 CXO 1 25867U 99040B 10068.58333333 -.00000183 +00000-0 +10000-3 0 04369 2 25867 066.6519 058.3027 8008682 275.2227 359.9148 00.37807070006015 ____________________________________________________________________ These 2-Line ...Continue Reading

[list_settings.list_name] Current TLEs

March 10th 2010 PST

HST 1 20580U 90037B 10066.57864224 +.00000570 +00000-0 +30822-4 0 05329 2 20580 028.4687 183.1574 0003395 198.8317 161.2293 15.00913799889472 ISS (ZARYA) 1 25544U 98067A 10065.22821759 .00015008 00000-0 10867-3 0 7119 2 25544 051.6477 039.1769 0007717 018.7598 172.1356 15.73671890647253 CXO 1 25867U 99040B 10063.25000000 -.00000247 00000-0 10000-3 0 4350 2 25867 066.6236 058.4754 7994520 275.2467 353.8754 00.37807142 5991 ____________________________________________________________________ These 2-Line ...Continue Reading

[list_settings.list_name] Current TLEs

March 9th 2010 PST

HST 1 20580U 90037B 10063.58635383 .00000494 00000-0 25066-4 0 5317 2 20580 028.4681 202.7003 0003608 173.2518 186.8077 15.00910894889025 ISS (ZARYA) 1 25544U 98067A 10065.07499095 .00015106 00000-0 10937-3 0 7102 2 25544 051.6477 039.9632 0007772 017.9119 024.3386 15.73667540647237 CXO 1 25867U 99040B 10063.25000000 -.00000247 00000-0 10000-3 0 4350 2 25867 066.6236 058.4754 7994520 275.2467 353.8754 00.37807142 5991 ____________________________________________________________________ These 2-Line ...Continue Reading

[list_settings.list_name] Current TLEs

March 8th 2010 PST

HST 1 20580U 90037B 10063.58635383 .00000494 00000-0 25066-4 0 5317 2 20580 028.4681 202.7003 0003608 173.2518 186.8077 15.00910894889025 ISS (ZARYA) 1 25544U 98067A 10064.68230324 .00015017 00000-0 10882-3 0 7083 2 25544 051.6472 041.9784 0007597 016.9317 319.1750 15.73655058647160 CXO 1 25867U 99040B 10063.25000000 -.00000247 00000-0 10000-3 0 4350 2 25867 066.6236 058.4754 7994520 275.2467 353.8754 00.37807142 5991 ____________________________________________________________________ These 2-Line ...Continue Reading

[list_settings.list_name] Current TLEs

March 7th 2010 PST

HST 1 20580U 90037B 10063.58635383 .00000494 00000-0 25066-4 0 5317 2 20580 028.4681 202.7003 0003608 173.2518 186.8077 15.00910894889025 ISS (ZARYA) 1 25544U 98067A 10064.39412176 .00014921 00000-0 10819-3 0 7058 2 25544 051.6473 043.4569 0007634 015.8318 126.5852 15.73645707647129 CXO 1 25867U 99040B 10063.25000000 -.00000247 00000-0 10000-3 0 4350 2 25867 066.6236 058.4754 7994520 275.2467 353.8754 00.37807142 5991 ____________________________________________________________________ These 2-Line ...Continue Reading

[list_settings.list_name] Current TLEs

March 6th 2010 PST

HST 1 20580U 90037B 10063.58635383 .00000494 00000-0 25066-4 0 5317 2 20580 028.4681 202.7003 0003608 173.2518 186.8077 15.00910894889025 ISS (ZARYA) 1 25544U 98067A 10063.73443287 .00014338 00000-0 10425-3 0 7013 2 25544 051.6466 046.8425 0007568 013.7289 348.9679 15.73622718647022 CXO 1 25867U 99040B 10063.25000000 -.00000247 00000-0 10000-3 0 4350 2 25867 066.6236 058.4754 7994520 275.2467 353.8754 00.37807142 5991 ____________________________________________________________________ These 2-Line ...Continue Reading

[list_settings.list_name] Current TLEs

March 5th 2010 PST

HST 1 20580U 90037B 10060.86004443 .00000542 00000-0 28712-4 0 5306 2 20580 028.4682 220.4931 0003565 143.9854 216.0970 15.00909457888617 ISS (ZARYA) 1 25544U 98067A 10063.37915313 .00014094 00000-0 10260-3 0 6988 2 25544 051.6465 048.6647 0007661 011.8053 136.8643 15.73611041646963 CXO 1 25867U 99040B 10063.25000000 -.00000247 00000-0 10000-3 0 4350 2 25867 066.6236 058.4754 7994520 275.2467 353.8754 00.37807142 5991 ____________________________________________________________________ These 2-Line ...Continue Reading

[list_settings.list_name] Current TLEs

March 4th 2010 PST

HST 1 20580U 90037B 10060.86004443 .00000542 00000-0 28712-4 0 5306 2 20580 028.4682 220.4931 0003565 143.9854 216.0970 15.00909457888617 ISS (ZARYA) 1 25544U 98067A 10061.96077551 .00013678 00000-0 99898-4 0 6874 2 25544 051.6472 055.9434 0007506 006.7069 021.5437 15.73568061646744 CXO 1 25867U 99040B 10063.25000000 -.00000247 00000-0 10000-3 0 4350 2 25867 066.6236 058.4754 7994520 275.2467 353.8754 00.37807142 5991 ____________________________________________________________________ These 2-Line ...Continue Reading

[list_settings.list_name] Current TLEs

March 3rd 2010 PST

HST 1 20580U 90037B 10060.86004443 .00000542 00000-0 28712-4 0 5306 2 20580 028.4682 220.4931 0003565 143.9854 216.0970 15.00909457888617 ISS (ZARYA) 1 25544U 98067A 10061.22453704 .00013851 00000-0 10119-3 0 6827 2 25544 051.6466 059.7216 0007390 003.8596 170.9351 15.73547683646629 CXO 1 25867U 99040B 10060.62500000 -.00000096 00000-0 10000-3 0 4344 2 25867 066.6097 058.6014 7989919 275.2423 356.4873 00.37807143 5986 ____________________________________________________________________ These 2-Line ...Continue Reading
  • This mailing list is a public mailing list - anyone may join or leave, at any time.
  • This mailing list is announce-only.

International Space Station (ISS) / Hubble Space Telescope (HST) / Chandra X-Ray Observatory Orbital Data via EMAIL

Privacy Policy:

Private list